Year,Month,Day,Hour,Minute,Value (Times are PST for temperature in C)
2021,04,27,00,00,8.90
2021,04,27,00,01,8.90
2021,04,27,00,02,8.80
2021,04,27,00,03,8.80
2021,04,27,00,04,8.80
2021,04,27,00,05,8.80
2021,04,27,00,06,8.70
2021,04,27,00,07,8.70
2021,04,27,00,08,8.70
2021,04,27,00,09,8.70
2021,04,27,00,10,8.70
2021,04,27,00,11,8.60
2021,04,27,00,12,8.60
2021,04,27,00,13,8.60
2021,04,27,00,14,8.60
2021,04,27,00,15,8.60
2021,04,27,00,16,8.60
2021,04,27,00,17,8.60
2021,04,27,00,18,8.60
2021,04,27,00,19,8.60
2021,04,27,00,20,8.60
2021,04,27,00,21,8.50
2021,04,27,00,22,8.50
2021,04,27,00,23,8.50
2021,04,27,00,24,8.50
2021,04,27,00,25,8.50
2021,04,27,00,26,8.50
2021,04,27,00,27,8.50
2021,04,27,00,28,8.50
2021,04,27,00,29,8.50
2021,04,27,00,30,8.50
2021,04,27,00,31,8.50
2021,04,27,00,32,8.40
2021,04,27,00,33,8.40
2021,04,27,00,34,8.40
2021,04,27,00,35,8.40
2021,04,27,00,36,8.40
2021,04,27,00,37,8.40
2021,04,27,00,38,8.30
2021,04,27,00,39,8.30
2021,04,27,00,40,8.30
2021,04,27,00,41,8.30
2021,04,27,00,42,8.20
2021,04,27,00,43,8.20
2021,04,27,00,44,8.20
2021,04,27,00,45,8.20
2021,04,27,00,46,8.20
2021,04,27,00,47,8.10
2021,04,27,00,48,8.10
2021,04,27,00,49,8.10
2021,04,27,00,50,8.10
2021,04,27,00,51,8.10
2021,04,27,00,52,8.10
2021,04,27,00,53,8.00
2021,04,27,00,54,8.00
2021,04,27,00,55,8.00
2021,04,27,00,56,7.90
2021,04,27,00,57,7.90
2021,04,27,00,58,7.90
2021,04,27,00,59,7.90
2021,04,27,01,00,7.80
2021,04,27,01,01,7.80
2021,04,27,01,02,7.80
2021,04,27,01,03,7.80
2021,04,27,01,04,7.80
2021,04,27,01,05,7.80
2021,04,27,01,06,7.70
2021,04,27,01,07,7.70
2021,04,27,01,08,7.70
2021,04,27,01,09,7.70
2021,04,27,01,10,7.70
2021,04,27,01,11,7.60
2021,04,27,01,12,7.60
2021,04,27,01,13,7.60
2021,04,27,01,14,7.60
2021,04,27,01,15,7.50
2021,04,27,01,16,7.50
2021,04,27,01,17,7.50
2021,04,27,01,18,7.40
2021,04,27,01,19,7.40
2021,04,27,01,20,7.40
2021,04,27,01,21,7.40
2021,04,27,01,22,7.40
2021,04,27,01,23,7.40
2021,04,27,01,24,7.40
2021,04,27,01,25,7.40
2021,04,27,01,26,7.30
2021,04,27,01,27,7.30
2021,04,27,01,28,7.30
2021,04,27,01,29,7.30
2021,04,27,01,30,7.30
2021,04,27,01,31,7.30
2021,04,27,01,32,7.30
2021,04,27,01,33,7.30
2021,04,27,01,34,7.30
2021,04,27,01,35,7.30
2021,04,27,01,36,7.30
2021,04,27,01,37,7.30
2021,04,27,01,38,7.30
2021,04,27,01,39,7.30
2021,04,27,01,40,7.30
2021,04,27,01,41,7.30
2021,04,27,01,42,7.30
2021,04,27,01,43,7.30
2021,04,27,01,44,7.30
2021,04,27,01,45,7.30
2021,04,27,01,46,7.30
2021,04,27,01,47,7.30
2021,04,27,01,48,7.30
2021,04,27,01,49,7.30
2021,04,27,01,50,7.30
2021,04,27,01,51,7.30
2021,04,27,01,52,7.30
2021,04,27,01,53,7.30
2021,04,27,01,54,7.30
2021,04,27,01,55,7.20
2021,04,27,01,56,7.20
2021,04,27,01,57,7.20
2021,04,27,01,58,7.20
2021,04,27,01,59,7.20
2021,04,27,02,00,7.20
2021,04,27,02,01,7.20
2021,04,27,02,02,7.10
2021,04,27,02,03,7.10
2021,04,27,02,04,7.10
2021,04,27,02,05,7.10
2021,04,27,02,06,7.10
2021,04,27,02,07,7.00
2021,04,27,02,08,7.00
2021,04,27,02,09,7.00
2021,04,27,02,10,7.00
2021,04,27,02,11,6.90
2021,04,27,02,12,6.90
2021,04,27,02,13,6.90
2021,04,27,02,14,6.90
2021,04,27,02,15,6.90
2021,04,27,02,16,6.90
2021,04,27,02,17,6.90
2021,04,27,02,18,6.90
2021,04,27,02,19,6.90
2021,04,27,02,20,6.90
2021,04,27,02,21,6.80
2021,04,27,02,22,6.80
2021,04,27,02,23,6.80
2021,04,27,02,24,6.80
2021,04,27,02,25,6.80
2021,04,27,02,26,6.80
2021,04,27,02,27,6.70
2021,04,27,02,28,6.70
2021,04,27,02,29,6.70
2021,04,27,02,30,6.70
2021,04,27,02,31,6.70
2021,04,27,02,32,6.70
2021,04,27,02,33,6.70
2021,04,27,02,34,6.70
2021,04,27,02,35,6.70
2021,04,27,02,36,6.70
2021,04,27,02,37,6.70
2021,04,27,02,38,6.70
2021,04,27,02,39,6.70
2021,04,27,02,40,6.70
2021,04,27,02,41,6.70
2021,04,27,02,42,6.70
2021,04,27,02,43,6.70
2021,04,27,02,44,6.70
2021,04,27,02,45,6.70
2021,04,27,02,46,6.70
2021,04,27,02,47,6.70
2021,04,27,02,48,6.70
2021,04,27,02,49,6.60
2021,04,27,02,50,6.60
2021,04,27,02,51,6.60
2021,04,27,02,52,6.60
2021,04,27,02,53,6.60
2021,04,27,02,54,6.60
2021,04,27,02,55,6.60
2021,04,27,02,56,6.50
2021,04,27,02,57,6.50
2021,04,27,02,58,6.60
2021,04,27,02,59,6.60
2021,04,27,03,00,6.60
2021,04,27,03,01,6.60
2021,04,27,03,02,6.60
2021,04,27,03,03,6.60
2021,04,27,03,04,6.60
2021,04,27,03,05,6.60
2021,04,27,03,06,6.60
2021,04,27,03,07,6.60
2021,04,27,03,08,6.60
2021,04,27,03,09,6.60
2021,04,27,03,10,6.60
2021,04,27,03,11,6.60
2021,04,27,03,12,6.60
2021,04,27,03,13,6.60
2021,04,27,03,14,6.60
2021,04,27,03,15,6.50
2021,04,27,03,16,6.50
2021,04,27,03,17,6.50
2021,04,27,03,18,6.50
2021,04,27,03,19,6.50
2021,04,27,03,20,6.50
2021,04,27,03,21,6.40
2021,04,27,03,22,6.40
2021,04,27,03,23,6.40
2021,04,27,03,24,6.40
2021,04,27,03,25,6.30
2021,04,27,03,26,6.30
2021,04,27,03,27,6.30
2021,04,27,03,28,6.30
2021,04,27,03,29,6.30
2021,04,27,03,30,6.30
2021,04,27,03,31,6.30
2021,04,27,03,32,6.20
2021,04,27,03,33,6.20
2021,04,27,03,34,6.20
2021,04,27,03,35,6.10
2021,04,27,03,36,6.10
2021,04,27,03,37,6.10
2021,04,27,03,38,6.10
2021,04,27,03,39,6.10
2021,04,27,03,40,6.10
2021,04,27,03,41,6.10
2021,04,27,03,42,6.10
2021,04,27,03,43,6.10
2021,04,27,03,44,6.10
2021,04,27,03,45,6.00
2021,04,27,03,46,6.00
2021,04,27,03,47,6.00
2021,04,27,03,48,6.00
2021,04,27,03,49,6.00
2021,04,27,03,50,6.00
2021,04,27,03,51,6.00
2021,04,27,03,52,6.00
2021,04,27,03,53,6.00
2021,04,27,03,54,6.00
2021,04,27,03,55,6.00
2021,04,27,03,56,6.00
2021,04,27,03,57,5.90
2021,04,27,03,58,5.90
2021,04,27,03,59,5.90
2021,04,27,04,00,5.90
2021,04,27,04,01,5.90
2021,04,27,04,02,5.80
2021,04,27,04,03,5.80
2021,04,27,04,04,5.80
2021,04,27,04,05,5.80
2021,04,27,04,06,5.80
2021,04,27,04,07,5.80
2021,04,27,04,08,5.80
2021,04,27,04,09,5.80
2021,04,27,04,10,5.80
2021,04,27,04,11,5.80
2021,04,27,04,12,5.80
2021,04,27,04,13,5.80
2021,04,27,04,14,5.80
2021,04,27,04,15,5.80
2021,04,27,04,16,5.80
2021,04,27,04,17,5.80
2021,04,27,04,18,5.80
2021,04,27,04,19,5.80
2021,04,27,04,20,5.80
2021,04,27,04,21,5.80
2021,04,27,04,22,5.80
2021,04,27,04,23,5.80
2021,04,27,04,24,5.80
2021,04,27,04,25,5.80
2021,04,27,04,26,5.80
2021,04,27,04,27,5.80
2021,04,27,04,28,5.80
2021,04,27,04,29,5.80
2021,04,27,04,30,5.80
2021,04,27,04,31,5.70
2021,04,27,04,32,5.70
2021,04,27,04,33,5.70
2021,04,27,04,34,5.70
2021,04,27,04,35,5.70
2021,04,27,04,36,5.70
2021,04,27,04,37,5.70
2021,04,27,04,38,5.70
2021,04,27,04,39,5.70
2021,04,27,04,40,5.70
2021,04,27,04,41,5.70
2021,04,27,04,42,5.70
2021,04,27,04,43,5.70
2021,04,27,04,44,5.70
2021,04,27,04,45,5.70
2021,04,27,04,46,5.70
2021,04,27,04,47,5.70
2021,04,27,04,48,5.70
2021,04,27,04,49,5.70
2021,04,27,04,50,5.70
2021,04,27,04,51,5.70
2021,04,27,04,52,5.70
2021,04,27,04,53,5.70
2021,04,27,04,54,5.60
2021,04,27,04,55,5.70
2021,04,27,04,56,5.70
2021,04,27,04,57,5.70
2021,04,27,04,58,5.60
2021,04,27,04,59,5.60
2021,04,27,05,00,5.60
2021,04,27,05,01,5.60
2021,04,27,05,02,5.60
2021,04,27,05,03,5.60
2021,04,27,05,04,5.60
2021,04,27,05,05,5.60
2021,04,27,05,06,5.60
2021,04,27,05,07,5.60
2021,04,27,05,08,5.60
2021,04,27,05,09,5.60
2021,04,27,05,10,5.60
2021,04,27,05,11,5.70
2021,04,27,05,12,5.60
2021,04,27,05,13,5.60
2021,04,27,05,14,5.60
2021,04,27,05,15,5.60
2021,04,27,05,16,5.60
2021,04,27,05,17,5.60
2021,04,27,05,18,5.60
2021,04,27,05,19,5.60
2021,04,27,05,20,5.60
2021,04,27,05,21,5.60
2021,04,27,05,22,5.60
2021,04,27,05,23,5.60
2021,04,27,05,24,5.60
2021,04,27,05,25,5.60
2021,04,27,05,26,5.60
2021,04,27,05,27,5.50
2021,04,27,05,28,5.50
2021,04,27,05,29,5.50
2021,04,27,05,30,5.50
2021,04,27,05,31,5.50
2021,04,27,05,32,5.40
2021,04,27,05,33,5.40
2021,04,27,05,34,5.40
2021,04,27,05,35,5.40
2021,04,27,05,36,5.40
2021,04,27,05,37,5.40
2021,04,27,05,38,5.40
2021,04,27,05,39,5.40
2021,04,27,05,40,5.40
2021,04,27,05,41,5.40
2021,04,27,05,42,5.40
2021,04,27,05,43,5.40
2021,04,27,05,44,5.40
2021,04,27,05,45,5.40
2021,04,27,05,46,5.40
2021,04,27,05,47,5.40
2021,04,27,05,48,5.40
2021,04,27,05,49,5.40
2021,04,27,05,50,5.40
2021,04,27,05,51,5.40
2021,04,27,05,52,5.40
2021,04,27,05,53,5.40
2021,04,27,05,54,5.40
2021,04,27,05,55,5.40
2021,04,27,05,56,5.40
2021,04,27,05,57,5.40
2021,04,27,05,58,5.40
2021,04,27,05,59,5.40
2021,04,27,06,00,5.40
2021,04,27,06,01,5.40
2021,04,27,06,02,5.40
2021,04,27,06,03,5.40
2021,04,27,06,04,5.40
2021,04,27,06,05,5.40
2021,04,27,06,06,5.40
2021,04,27,06,07,5.40
2021,04,27,06,08,5.40
2021,04,27,06,09,5.40
2021,04,27,06,10,5.40
2021,04,27,06,11,5.40
2021,04,27,06,12,5.40
2021,04,27,06,13,5.40
2021,04,27,06,14,5.40
2021,04,27,06,15,5.40
2021,04,27,06,16,5.40
2021,04,27,06,17,5.40
2021,04,27,06,18,5.40
2021,04,27,06,19,5.40
2021,04,27,06,20,5.40
2021,04,27,06,21,5.40
2021,04,27,06,22,5.40
2021,04,27,06,23,5.40
2021,04,27,06,24,5.50
2021,04,27,06,25,5.50
2021,04,27,06,26,5.50
2021,04,27,06,27,5.50
2021,04,27,06,28,5.50
2021,04,27,06,29,5.50
2021,04,27,06,30,5.50
2021,04,27,06,31,5.60
2021,04,27,06,32,5.60
2021,04,27,06,33,5.60
2021,04,27,06,34,5.60
2021,04,27,06,35,5.60
2021,04,27,06,36,5.70
2021,04,27,06,37,5.70
2021,04,27,06,38,5.70
2021,04,27,06,39,5.70
2021,04,27,06,40,5.70
2021,04,27,06,41,5.70
2021,04,27,06,42,5.70
2021,04,27,06,43,5.70
2021,04,27,06,44,5.70
2021,04,27,06,45,5.70
2021,04,27,06,46,5.70
2021,04,27,06,47,5.70
2021,04,27,06,48,5.70
2021,04,27,06,49,5.70
2021,04,27,06,50,5.70
2021,04,27,06,51,5.80
2021,04,27,06,52,5.80
2021,04,27,06,53,5.80
2021,04,27,06,54,5.80
2021,04,27,06,55,5.80
2021,04,27,06,56,5.80
2021,04,27,06,57,5.80
2021,04,27,06,58,5.90
2021,04,27,06,59,5.90
2021,04,27,07,00,5.90
2021,04,27,07,01,5.90
2021,04,27,07,02,5.90
2021,04,27,07,03,5.90
2021,04,27,07,04,5.90
2021,04,27,07,05,6.00
2021,04,27,07,06,6.00
2021,04,27,07,07,6.00
2021,04,27,07,08,6.00
2021,04,27,07,09,6.00
2021,04,27,07,10,6.00
2021,04,27,07,11,6.10
2021,04,27,07,12,6.10
2021,04,27,07,13,6.10
2021,04,27,07,14,6.10
2021,04,27,07,15,6.10
2021,04,27,07,16,6.10
2021,04,27,07,17,6.10
2021,04,27,07,18,6.10
2021,04,27,07,19,6.10
2021,04,27,07,20,6.20
2021,04,27,07,21,6.20
2021,04,27,07,22,6.20
2021,04,27,07,23,6.20
2021,04,27,07,24,6.20
2021,04,27,07,25,6.20
2021,04,27,07,26,6.30
2021,04,27,07,27,6.30
2021,04,27,07,28,6.30
2021,04,27,07,29,6.30
2021,04,27,07,30,6.30
2021,04,27,07,31,6.30
2021,04,27,07,32,6.40
2021,04,27,07,33,6.40
2021,04,27,07,34,6.40
2021,04,27,07,35,6.40
2021,04,27,07,36,6.40
2021,04,27,07,37,6.50
2021,04,27,07,38,6.50
2021,04,27,07,39,6.50
2021,04,27,07,40,6.60
2021,04,27,07,41,6.60
2021,04,27,07,42,6.60
2021,04,27,07,43,6.70
2021,04,27,07,44,6.70
2021,04,27,07,45,6.70
2021,04,27,07,46,6.80
2021,04,27,07,47,6.90
2021,04,27,07,48,6.90
2021,04,27,07,49,6.90
2021,04,27,07,50,6.90
2021,04,27,07,51,6.90
2021,04,27,07,52,7.00
2021,04,27,07,53,7.00
2021,04,27,07,54,7.00
2021,04,27,07,55,7.10
2021,04,27,07,56,7.10
2021,04,27,07,57,7.10
2021,04,27,07,58,7.10
2021,04,27,07,59,7.10
2021,04,27,08,00,7.20
2021,04,27,08,01,7.20
2021,04,27,08,02,7.20
2021,04,27,08,03,7.20
2021,04,27,08,04,7.20
2021,04,27,08,05,7.20
2021,04,27,08,06,7.30
2021,04,27,08,07,7.30
2021,04,27,08,08,7.30
2021,04,27,08,09,7.30
2021,04,27,08,10,7.30
2021,04,27,08,11,7.40
2021,04,27,08,12,7.40
2021,04,27,08,13,7.40
2021,04,27,08,14,7.50
2021,04,27,08,15,7.50
2021,04,27,08,16,7.60
2021,04,27,08,17,7.60
2021,04,27,08,18,7.60
2021,04,27,08,19,7.70
2021,04,27,08,20,7.70
2021,04,27,08,21,7.70
2021,04,27,08,22,7.80
2021,04,27,08,23,7.80
2021,04,27,08,24,7.80
2021,04,27,08,25,7.80
2021,04,27,08,26,7.80
2021,04,27,08,27,7.80
2021,04,27,08,28,7.90
2021,04,27,08,29,7.90
2021,04,27,08,30,8.00
2021,04,27,08,31,8.00
2021,04,27,08,32,8.00
2021,04,27,08,33,8.10
2021,04,27,08,34,8.10
2021,04,27,08,35,8.10
2021,04,27,08,36,8.10
2021,04,27,08,37,8.10
2021,04,27,08,38,8.20
2021,04,27,08,39,8.20
2021,04,27,08,40,8.20
2021,04,27,08,41,8.20
2021,04,27,08,42,8.20
2021,04,27,08,43,8.30
2021,04,27,08,44,8.30
2021,04,27,08,45,8.30
2021,04,27,08,46,8.30
2021,04,27,08,47,8.40
2021,04,27,08,48,8.40
2021,04,27,08,49,8.40
2021,04,27,08,50,8.40
2021,04,27,08,51,8.50
2021,04,27,08,52,8.50
2021,04,27,08,53,8.60
2021,04,27,08,54,8.60
2021,04,27,08,55,8.60
2021,04,27,08,56,8.60
2021,04,27,08,57,8.70
2021,04,27,08,58,8.70
2021,04,27,08,59,8.70
2021,04,27,09,00,8.80
2021,04,27,09,01,8.80
2021,04,27,09,02,8.80
2021,04,27,09,03,8.90
2021,04,27,09,04,8.90
2021,04,27,09,05,8.90
2021,04,27,09,06,9.00
2021,04,27,09,07,9.00
2021,04,27,09,08,9.10
2021,04,27,09,09,9.10
2021,04,27,09,10,9.10
2021,04,27,09,11,9.20
2021,04,27,09,12,9.30
2021,04,27,09,13,9.30
2021,04,27,09,14,9.30
2021,04,27,09,15,9.30
2021,04,27,09,16,9.40
2021,04,27,09,17,9.40
2021,04,27,09,18,9.50
2021,04,27,09,19,9.50
2021,04,27,09,20,9.60
2021,04,27,09,21,9.60
2021,04,27,09,22,9.60
2021,04,27,09,23,9.70
2021,04,27,09,24,9.70
2021,04,27,09,25,9.70
2021,04,27,09,26,9.80
2021,04,27,09,27,9.80
2021,04,27,09,28,9.80
2021,04,27,09,29,9.80
2021,04,27,09,30,9.90
2021,04,27,09,31,9.90
2021,04,27,09,32,9.90
2021,04,27,09,33,10.00
2021,04,27,09,34,10.00
2021,04,27,09,35,10.10
2021,04,27,09,36,10.10
2021,04,27,09,37,10.10
2021,04,27,09,38,10.20
2021,04,27,09,39,10.20
2021,04,27,09,40,10.20
2021,04,27,09,41,10.20
2021,04,27,09,42,10.30
2021,04,27,09,43,10.30
2021,04,27,09,44,10.30
2021,04,27,09,45,10.40
2021,04,27,09,46,10.40
2021,04,27,09,47,10.40
2021,04,27,09,48,10.50
2021,04,27,09,49,10.50
2021,04,27,09,50,10.50
2021,04,27,09,51,10.60
2021,04,27,09,52,10.60
2021,04,27,09,53,10.60
2021,04,27,09,54,10.70
2021,04,27,09,55,10.70
2021,04,27,09,56,10.70
2021,04,27,09,57,10.70
2021,04,27,09,58,10.70
2021,04,27,09,59,10.80
2021,04,27,10,00,10.80
2021,04,27,10,01,10.80
2021,04,27,10,02,10.80
2021,04,27,10,03,10.80
2021,04,27,10,04,10.80
2021,04,27,10,05,10.90
2021,04,27,10,06,10.90
2021,04,27,10,07,10.90
2021,04,27,10,08,10.90
2021,04,27,10,09,10.90
2021,04,27,10,10,10.90
2021,04,27,10,11,10.90
2021,04,27,10,12,10.90
2021,04,27,10,13,10.90
2021,04,27,10,14,11.00
2021,04,27,10,15,11.00
2021,04,27,10,16,11.10
2021,04,27,10,17,11.10
2021,04,27,10,18,11.10
2021,04,27,10,19,11.10
2021,04,27,10,20,11.20
2021,04,27,10,21,11.20
2021,04,27,10,22,11.30
2021,04,27,10,23,11.30
2021,04,27,10,24,11.40
2021,04,27,10,25,11.40
2021,04,27,10,26,11.50
2021,04,27,10,27,11.50
2021,04,27,10,28,11.60
2021,04,27,10,29,11.60
2021,04,27,10,30,11.60
2021,04,27,10,31,11.60
2021,04,27,10,32,11.60
2021,04,27,10,33,11.70
2021,04,27,10,34,11.70
2021,04,27,10,35,11.70
2021,04,27,10,36,11.70
2021,04,27,10,37,11.80
2021,04,27,10,38,11.80
2021,04,27,10,39,11.80
2021,04,27,10,40,11.90
2021,04,27,10,41,11.90
2021,04,27,10,42,12.00
2021,04,27,10,43,12.00
2021,04,27,10,44,12.00
2021,04,27,10,45,12.00
2021,04,27,10,46,12.10
2021,04,27,10,47,12.10
2021,04,27,10,48,12.10
2021,04,27,10,49,12.10
2021,04,27,10,50,12.20
2021,04,27,10,51,12.20
2021,04,27,10,52,12.20
2021,04,27,10,53,12.20
2021,04,27,10,54,12.20
2021,04,27,10,55,12.20
2021,04,27,10,56,12.20
2021,04,27,10,57,12.20
2021,04,27,10,58,12.30
2021,04,27,10,59,12.30
2021,04,27,11,00,12.30
2021,04,27,11,01,12.30
2021,04,27,11,02,12.40
2021,04,27,11,03,12.40
2021,04,27,11,04,12.50
2021,04,27,11,05,12.50
2021,04,27,11,06,12.60
2021,04,27,11,07,12.60
2021,04,27,11,08,12.60
2021,04,27,11,09,12.70
2021,04,27,11,10,12.70
2021,04,27,11,11,12.70
2021,04,27,11,12,12.80
2021,04,27,11,13,12.80
2021,04,27,11,14,12.80
2021,04,27,11,15,12.80
2021,04,27,11,16,12.90
2021,04,27,11,17,12.90
2021,04,27,11,18,13.00
2021,04,27,11,19,13.00
2021,04,27,11,20,13.00
2021,04,27,11,21,13.10
2021,04,27,11,22,13.10
2021,04,27,11,23,13.10
2021,04,27,11,24,13.10
2021,04,27,11,25,13.20
2021,04,27,11,26,13.20
2021,04,27,11,27,13.20
2021,04,27,11,28,13.20
2021,04,27,11,29,13.20
2021,04,27,11,30,13.20
2021,04,27,11,31,13.30
2021,04,27,11,32,13.30
2021,04,27,11,33,13.30
2021,04,27,11,34,13.20
2021,04,27,11,35,13.20
2021,04,27,11,36,13.20
2021,04,27,11,37,13.20
2021,04,27,11,38,13.20
2021,04,27,11,39,13.20
2021,04,27,11,40,13.20
2021,04,27,11,41,13.20
2021,04,27,11,42,13.20
2021,04,27,11,43,13.20
2021,04,27,11,44,13.20
2021,04,27,11,45,13.20
2021,04,27,11,46,13.20
2021,04,27,11,47,13.20
2021,04,27,11,48,13.20
2021,04,27,11,49,13.30
2021,04,27,11,50,13.30
2021,04,27,11,51,13.30
2021,04,27,11,52,13.30
2021,04,27,11,53,13.40
2021,04,27,11,54,13.40
2021,04,27,11,55,13.40
2021,04,27,11,56,13.40
2021,04,27,11,57,13.40
2021,04,27,11,58,13.40
2021,04,27,11,59,13.40
2021,04,27,12,00,13.40
2021,04,27,12,01,13.40
2021,04,27,12,02,13.40
2021,04,27,12,03,13.50
2021,04,27,12,04,13.50
2021,04,27,12,05,13.50
2021,04,27,12,06,13.60
2021,04,27,12,07,13.60
2021,04,27,12,08,13.60
2021,04,27,12,09,13.70
2021,04,27,12,10,13.70
2021,04,27,12,11,13.70
2021,04,27,12,12,13.70
2021,04,27,12,13,13.80
2021,04,27,12,14,13.80
2021,04,27,12,15,13.80
2021,04,27,12,16,13.80
2021,04,27,12,17,13.80
2021,04,27,12,18,13.80
2021,04,27,12,19,13.70
2021,04,27,12,20,13.70
2021,04,27,12,21,13.70
2021,04,27,12,22,13.70
2021,04,27,12,23,13.70
2021,04,27,12,24,13.70
2021,04,27,12,25,13.70
2021,04,27,12,26,13.60
2021,04,27,12,27,13.60
2021,04,27,12,28,13.60
2021,04,27,12,29,13.70
2021,04,27,12,30,13.70
2021,04,27,12,31,13.80
2021,04,27,12,32,13.80
2021,04,27,12,33,13.90
2021,04,27,12,34,13.90
2021,04,27,12,35,14.00
2021,04,27,12,36,14.00
2021,04,27,12,37,14.00
2021,04,27,12,38,14.10
2021,04,27,12,39,14.10
2021,04,27,12,40,14.10
2021,04,27,12,41,14.00
2021,04,27,12,42,14.00
2021,04,27,12,43,14.00
2021,04,27,12,44,14.10
2021,04,27,12,45,14.10
2021,04,27,12,46,14.10
2021,04,27,12,47,14.10
2021,04,27,12,48,14.10
2021,04,27,12,49,14.20
2021,04,27,12,50,14.20
2021,04,27,12,51,14.20
2021,04,27,12,52,14.20
2021,04,27,12,53,14.20
2021,04,27,12,54,14.20
2021,04,27,12,55,14.20
2021,04,27,12,56,14.20
2021,04,27,12,57,14.20
2021,04,27,12,58,14.20
2021,04,27,12,59,14.20
2021,04,27,13,00,14.20
2021,04,27,13,01,14.20
2021,04,27,13,02,14.20
2021,04,27,13,03,14.20
2021,04,27,13,04,14.20
2021,04,27,13,05,14.20
2021,04,27,13,06,14.20
2021,04,27,13,07,14.20
2021,04,27,13,08,14.20
2021,04,27,13,09,14.30
2021,04,27,13,10,14.30
2021,04,27,13,11,14.30
2021,04,27,13,12,14.20
2021,04,27,13,13,14.20
2021,04,27,13,14,14.10
2021,04,27,13,15,14.00
2021,04,27,13,16,13.90
2021,04,27,13,17,13.90
2021,04,27,13,18,13.80
2021,04,27,13,19,13.80
2021,04,27,13,20,13.80
2021,04,27,13,21,13.80
2021,04,27,13,22,13.80
2021,04,27,13,23,13.80
2021,04,27,13,24,13.90
2021,04,27,13,25,13.90
2021,04,27,13,26,14.00
2021,04,27,13,27,14.00
2021,04,27,13,28,14.10
2021,04,27,13,29,14.10
2021,04,27,13,30,14.20
2021,04,27,13,31,14.20
2021,04,27,13,32,14.20
2021,04,27,13,33,14.20
2021,04,27,13,34,14.20
2021,04,27,13,35,14.30
2021,04,27,13,36,14.30
2021,04,27,13,37,14.30
2021,04,27,13,38,14.30
2021,04,27,13,39,14.30
2021,04,27,13,40,14.30
2021,04,27,13,41,14.30
2021,04,27,13,42,14.30
2021,04,27,13,43,14.30
2021,04,27,13,44,14.30
2021,04,27,13,45,14.30
2021,04,27,13,46,14.30
2021,04,27,13,47,14.20
2021,04,27,13,48,14.20
2021,04,27,13,49,14.20
2021,04,27,13,50,14.10
2021,04,27,13,51,14.10
2021,04,27,13,52,14.10
2021,04,27,13,53,14.00
2021,04,27,13,54,14.00
2021,04,27,13,55,14.00
2021,04,27,13,56,13.90
2021,04,27,13,57,13.90
2021,04,27,13,58,13.90
2021,04,27,13,59,13.90
2021,04,27,14,00,13.80
2021,04,27,14,01,13.80
2021,04,27,14,02,13.70
2021,04,27,14,03,13.70
2021,04,27,14,04,13.60
2021,04,27,14,05,13.50
2021,04,27,14,06,13.40
2021,04,27,14,07,13.30
2021,04,27,14,08,13.30
2021,04,27,14,09,13.20
2021,04,27,14,10,13.20
2021,04,27,14,11,13.10
2021,04,27,14,12,13.00
2021,04,27,14,13,12.90
2021,04,27,14,14,12.90
2021,04,27,14,15,12.80
2021,04,27,14,16,12.70
2021,04,27,14,17,12.60
2021,04,27,14,18,12.60
2021,04,27,14,19,12.50
2021,04,27,14,20,12.50
2021,04,27,14,21,12.40
2021,04,27,14,22,12.40
2021,04,27,14,23,12.40
2021,04,27,14,24,12.50
2021,04,27,14,25,12.50
2021,04,27,14,26,12.60
2021,04,27,14,27,12.60
2021,04,27,14,28,12.60
2021,04,27,14,29,12.70
2021,04,27,14,30,12.80
2021,04,27,14,31,12.80
2021,04,27,14,32,12.80
2021,04,27,14,33,12.90
2021,04,27,14,34,12.90
2021,04,27,14,35,12.90
2021,04,27,14,36,12.90
2021,04,27,14,37,12.90
2021,04,27,14,38,12.90
2021,04,27,14,39,12.90
2021,04,27,14,40,13.00
2021,04,27,14,41,13.00
2021,04,27,14,42,13.00
2021,04,27,14,43,13.00
2021,04,27,14,44,13.00
2021,04,27,14,45,13.00
2021,04,27,14,46,13.00
2021,04,27,14,47,12.90
2021,04,27,14,48,12.90
2021,04,27,14,49,12.80
2021,04,27,14,50,12.80
2021,04,27,14,51,12.70
2021,04,27,14,52,12.60
2021,04,27,14,53,12.50
2021,04,27,14,54,12.50
2021,04,27,14,55,12.40
2021,04,27,14,56,12.30
2021,04,27,14,57,12.30
2021,04,27,14,58,12.20
2021,04,27,14,59,12.20
2021,04,27,15,00,12.10
2021,04,27,15,01,12.10
2021,04,27,15,02,12.10
2021,04,27,15,03,12.10
2021,04,27,15,04,12.10
2021,04,27,15,05,12.10
2021,04,27,15,06,12.10
2021,04,27,15,07,12.10
2021,04,27,15,08,12.10
2021,04,27,15,09,12.20
2021,04,27,15,10,12.20
2021,04,27,15,11,12.20
2021,04,27,15,12,12.20
2021,04,27,15,13,12.20
2021,04,27,15,14,12.20
2021,04,27,15,15,12.20
2021,04,27,15,16,12.20
2021,04,27,15,17,12.30
2021,04,27,15,18,12.30
2021,04,27,15,19,12.30
2021,04,27,15,20,12.30
2021,04,27,15,21,12.40
2021,04,27,15,22,12.40
2021,04,27,15,23,12.50
2021,04,27,15,24,12.50
2021,04,27,15,25,12.50
2021,04,27,15,26,12.50
2021,04,27,15,27,12.50
2021,04,27,15,28,12.60
2021,04,27,15,29,12.60
2021,04,27,15,30,12.60
2021,04,27,15,31,12.60
2021,04,27,15,32,12.60
2021,04,27,15,33,12.70
2021,04,27,15,34,12.70
2021,04,27,15,35,12.70
2021,04,27,15,36,12.70
2021,04,27,15,37,12.70
2021,04,27,15,38,12.80
2021,04,27,15,39,12.80
2021,04,27,15,40,12.80
2021,04,27,15,41,12.80
2021,04,27,15,42,12.80
2021,04,27,15,43,12.80
2021,04,27,15,44,12.80
2021,04,27,15,45,12.80
2021,04,27,15,46,12.90
2021,04,27,15,47,12.90
2021,04,27,15,48,12.90
2021,04,27,15,49,13.00
2021,04,27,15,50,12.90
2021,04,27,15,51,13.00
2021,04,27,15,52,13.00
2021,04,27,15,53,13.00
2021,04,27,15,54,13.00
2021,04,27,15,55,13.00
2021,04,27,15,56,13.00
2021,04,27,15,57,13.10
2021,04,27,15,58,13.10
2021,04,27,15,59,13.10
2021,04,27,16,00,13.10
2021,04,27,16,01,13.10
2021,04,27,16,02,13.10
2021,04,27,16,03,13.10
2021,04,27,16,04,13.20
2021,04,27,16,05,13.20
2021,04,27,16,06,13.20
2021,04,27,16,07,13.20
2021,04,27,16,08,13.20
2021,04,27,16,09,13.20
2021,04,27,16,10,13.20
2021,04,27,16,11,13.20
2021,04,27,16,12,13.30
2021,04,27,16,13,13.30
2021,04,27,16,14,13.30
2021,04,27,16,15,13.30
2021,04,27,16,16,13.30
2021,04,27,16,17,13.30
2021,04,27,16,18,13.30
2021,04,27,16,19,13.30
2021,04,27,16,20,13.30
2021,04,27,16,21,13.30
2021,04,27,16,22,13.40
2021,04,27,16,23,13.40
2021,04,27,16,24,13.40
2021,04,27,16,25,13.40
2021,04,27,16,26,13.40
2021,04,27,16,27,13.40
2021,04,27,16,28,13.40
2021,04,27,16,29,13.40
2021,04,27,16,30,13.50
2021,04,27,16,31,13.50
2021,04,27,16,32,13.50
2021,04,27,16,33,13.50
2021,04,27,16,34,13.50
2021,04,27,16,35,13.50
2021,04,27,16,36,13.50
2021,04,27,16,37,13.50
2021,04,27,16,38,13.50
2021,04,27,16,39,13.50
2021,04,27,16,40,13.40
2021,04,27,16,41,13.40
2021,04,27,16,42,13.30
2021,04,27,16,43,13.30
2021,04,27,16,44,13.30
2021,04,27,16,45,13.20
2021,04,27,16,46,13.20
2021,04,27,16,47,13.20
2021,04,27,16,48,13.20
2021,04,27,16,49,13.30
2021,04,27,16,50,13.30
2021,04,27,16,51,13.30
2021,04,27,16,52,13.30
2021,04,27,16,53,13.30
2021,04,27,16,54,13.40
2021,04,27,16,55,13.40
2021,04,27,16,56,13.40
2021,04,27,16,57,13.50
2021,04,27,16,58,13.50
2021,04,27,16,59,13.50
2021,04,27,17,00,13.50
2021,04,27,17,01,13.60
2021,04,27,17,02,13.60
2021,04,27,17,03,13.60
2021,04,27,17,04,13.60
2021,04,27,17,05,13.60
2021,04,27,17,06,13.60
2021,04,27,17,07,13.70
2021,04,27,17,08,13.70
2021,04,27,17,09,13.70
2021,04,27,17,10,13.70
2021,04,27,17,11,13.60
2021,04,27,17,12,13.70
2021,04,27,17,13,13.70
2021,04,27,17,14,13.70
2021,04,27,17,15,13.70
2021,04,27,17,16,13.70
2021,04,27,17,17,13.70
2021,04,27,17,18,13.70
2021,04,27,17,19,13.70
2021,04,27,17,20,13.70
2021,04,27,17,21,13.80
2021,04,27,17,22,13.80
2021,04,27,17,23,13.80
2021,04,27,17,24,13.80
2021,04,27,17,25,13.80
2021,04,27,17,26,13.90
2021,04,27,17,27,13.80
2021,04,27,17,28,13.80
2021,04,27,17,29,13.80
2021,04,27,17,30,13.80
2021,04,27,17,31,13.80
2021,04,27,17,32,13.70
2021,04,27,17,33,13.70
2021,04,27,17,34,13.70
2021,04,27,17,35,13.70
2021,04,27,17,36,13.60
2021,04,27,17,37,13.60
2021,04,27,17,38,13.50
2021,04,27,17,39,13.50
2021,04,27,17,40,13.50
2021,04,27,17,41,13.40
2021,04,27,17,42,13.40
2021,04,27,17,43,13.40
2021,04,27,17,44,13.30